Aérodrome :
LOGIN :

S'inscrire | Disclaimer

   EN    FR    IT 

 










Légende :    VFR   VFR Marginal   IFR   IFR Intensif   IFR Très Intensif
Visi : 
Plafond : 
>= 8 km
>= 3000ft
5 à 8 km
1000 à 3000 ft
1500m à 5 km
500 à 1000 ft
800 à 1500m
200 à 500 ft
< 800m
< 200 ft
Symboles :   Orages  Brouillard  Fortes neiges  Fortes précipitations  Vent > 20 kt
SIGMETs :   Divers  Orages  Givrage  Turbulence  Onde Orograph.  Cendres Volcan.







- Altitude de l'aérodrome : 788 ft
- Code IATA : DCM
- Voir les cartes d'approche


LFCK - Castres-Mazamet

DERNIER METAR :
  • 190400Z AUTO VRB03KT 2000 BR OVC003 03/02 Q1025

METARs EXPIRÉS :
  • 190330Z AUTO 07003KT 2900 BR OVC003 03/02 Q1025
  • 190300Z AUTO VRB03KT 3100 BR OVC003 03/02 Q1025
  • 190230Z AUTO 10003KT 4200 BR OVC004 03/03 Q1025
  • 190200Z AUTO 06003KT 040V100 4400 BR OVC004 03/03 Q1025

Prévision TAF périmée.
Pas de NOTAMs connus pour ce terrain.



MET'MAP, la Météo Aéronautique d'un coup d'oeil ! - Copyright ORBIFLY Décembre 2007 - Disclaimer

ORBIFLY MET'MAP TEAM :

Programmation & Développement : Alexandra Zaïnal
Conception & Développement : Baudouin d'Aumeries
Co-Programmation & Développement : Marc-Olivier Méhu
Soutien technique & logistique : Manuel Goepfert

Contact : metmap@orbifly.com




SOURCES & CREDITS :

   NOAA